Simultaneous Nadir Overpasses (SNOs) Predictions

Prediction of SNOs between GOES-16 and METOP-B Satellite Orbit:

Table of predicted SNOs for the next 14.0 days since TLE Epoch: 11/21/2025
Index Date Time (GOES-16) GOES-16 Lat,Lon METOP-B Lat,Lon Distance(km) Time Diff (sec)
1 11/22/2025 04:03:03 -0.03,-104.64 -0.17,-105.33 78.29 80
2 11/23/2025 03:39:48 -0.04,-104.64 0.89,-100.35 487.64 80
3 11/24/2025 15:58:50 0.04,-104.69 0.11,-104.96 31.35 80
4 11/27/2025 03:57:23 -0.05,-104.63 -0.07,-104.61 2.68 80
5 11/29/2025 15:58:30 0.06,-104.67 -0.02,-104.24 48.00 80
6 12/01/2025 04:17:39 -0.05,-104.62 -1.01,-108.87 485.31 80
7 12/02/2025 03:54:25 -0.06,-104.61 0.12,-103.91 80.55 80
8 12/03/2025 16:13:25 0.05,-104.65 0.89,-108.51 439.77 80
9 12/04/2025 15:55:31 0.06,-104.64 -0.19,-103.53 126.25 80
